Location: Brno
(49.2000°N, 16.6330°E)
Time: 17:05:46
(UTC+02:00)

Transit 4A - Pass Details

Date: 29 July 2021
Orbit: 871 x 974 km, 66.8° (Epoch: 16 September)

Event Time Altitude Azimuth Distance (km) Brightness Sun altitude
Rises 01:49:13 0° 212° (SSW) 3,492 - -21.2°
Reaches altitude 10° 01:51:43 10° 212° (SSW) 2,543 - -21.1°
Exits shadow 01:55:23 40° 210° (SSW) 1,264 8.1 -21.0°
Maximum altitude 01:57:36 86° 126° (SE) 885 7.7 -20.9°
Drops below altitude 10° 02:03:27 10° 37° (NE) 2,528 11.2 -20.6°
Sets 02:05:56 0° 37° (NE) 3,469 12.2 -20.5°
